Location: Newark
(52.3500°N, 175.9667°E)
Time: 22:55:54
(UTC+00:00)

Altair - Pass Details

Date: 25 April 2021
Orbit: 1501 x 1683 km, 47.2° (Epoch: 13 May)

Event Time Altitude Azimuth Distance (km) Brightness Sun altitude
Rises 14:40:41 0° 186° (S) 4,910 - -17.1°
Exits shadow 14:43:48 - 175° (S) 4,179 9.4 -16.8°
Reaches altitude 10° 14:45:08 10° 169° (S) 3,908 9.2 -16.6°
Maximum altitude 14:51:22 19° 130° (SE) 3,228 9.2 -16.0°
Drops below altitude 10° 14:57:29 10° 91° (E) 3,841 10.2 -15.4°
Sets 15:01:45 0° 74° (ENE) 4,796 11.1 -15.0°
